ITOND LIPZ-LIPV

Flight info

Callsign ITOND
Flight time 0h -11m
Altitude
Route CASAVIO
Aircraft P28A

Departure

Time 2026-05-06 16:23
Airport Venice Marco Polo Airport (LIPZ)

Arrival

Time 2026-05-06 16:11
Airport Venice-Lido Giovanni Nicelli Airfield (LIPV)
Time Latitude Longitude Altitude Speed Heading
2026-05-06 16:11 45.49904 12.33733 10 ft 0 kts 314°
2026-05-06 16:16 45.49872 12.33739 10 ft 15 kts 158°
2026-05-06 16:16 45.49781 12.33697 11 ft 25 kts 222°
2026-05-06 16:17 45.49640 12.33562 11 ft 20 kts 216°
2026-05-06 16:17 45.49539 12.33559 12 ft 16 kts 131°
2026-05-06 16:17 45.49505 12.33635 11 ft 4 kts 130°
2026-05-06 16:17 45.49502 12.33639 11 ft 0 kts 130°
2026-05-06 16:21 45.49475 12.33680 11 ft 12 kts 137°
2026-05-06 16:21 45.49419 12.33762 10 ft 8 kts 126°
2026-05-06 16:21 45.49435 12.33803 10 ft 0 kts 47°
2026-05-06 16:22 45.49435 12.33804 10 ft 2 kts 47°
2026-05-06 16:22 45.49574 12.33990 10 ft 59 kts 43°
2026-05-06 16:22 45.49951 12.34523 165 ft 84 kts 57°
2026-05-06 16:22 45.50257 12.35232 429 ft 82 kts 58°
2026-05-06 16:23 45.50584 12.35947 593 ft 98 kts 67°
2026-05-06 16:23 45.51006 12.36636 1024 ft 81 kts 43°
2026-05-06 16:23 45.51447 12.37094 1280 ft 85 kts 43°
2026-05-06 16:23 45.51922 12.37618 1553 ft 83 kts 44°
2026-05-06 16:24 45.52050 12.38323 1770 ft 80 kts 126°
2026-05-06 16:24 45.51785 12.38915 2166 ft 71 kts 131°
2026-05-06 16:24 45.51344 12.39017 2416 ft 76 kts 223°
2026-05-06 16:24 45.50947 12.38490 2620 ft 83 kts 214°
2026-05-06 16:25 45.50524 12.38025 2929 ft 81 kts 212°
2026-05-06 16:25 45.50026 12.37545 3070 ft 97 kts 210°
2026-05-06 16:25 45.49402 12.37002 3163 ft 112 kts 212°
2026-05-06 16:25 45.48717 12.36408 3237 ft 122 kts 206°
2026-05-06 16:26 45.47859 12.36150 1992 ft 161 kts 157°
2026-05-06 16:26 45.47653 12.37414 1377 ft 151 kts 55°
2026-05-06 16:26 45.48505 12.37606 1379 ft 121 kts 319°
2026-05-06 16:26 45.48765 12.36608 1393 ft 101 kts 250°
2026-05-06 16:27 45.48300 12.36248 1468 ft 80 kts 156°
2026-05-06 16:27 45.48170 12.36957 1463 ft 87 kts 66°
2026-05-06 16:27 45.48742 12.37159 1417 ft 98 kts 325°
2026-05-06 16:27 45.48812 12.36370 1354 ft 87 kts 213°
2026-05-06 16:28 45.48347 12.36654 1347 ft 89 kts 110°
2026-05-06 16:28 45.48834 12.37004 1206 ft 109 kts 323°
2026-05-06 16:28 45.48861 12.36083 841 ft 102 kts 229°
2026-05-06 16:28 45.48492 12.35341 827 ft 85 kts 227°
2026-05-06 16:29 45.48369 12.34568 721 ft 94 kts 301°
2026-05-06 16:29 45.48275 12.34004 587 ft 71 kts 176°
2026-05-06 16:29 45.48175 12.34518 552 ft 84 kts 39°
2026-05-06 16:29 45.48678 12.34210 457 ft 97 kts 270°
2026-05-06 16:30 45.48313 12.33989 440 ft 72 kts 120°
2026-05-06 16:30 45.48434 12.34422 385 ft 84 kts 27°
2026-05-06 16:30 45.48687 12.33836 404 ft 74 kts 202°
2026-05-06 16:30 45.48384 12.34201 343 ft 78 kts 76°
2026-05-06 16:31 45.48859 12.34133 326 ft 89 kts 282°
2026-05-06 16:31 45.48813 12.33352 267 ft 81 kts 302°
2026-05-06 16:31 45.49288 12.33596 98 ft 86 kts 47°
2026-05-06 16:31 45.49723 12.34156 18 ft 80 kts 45°
2026-05-06 16:32 45.50072 12.34621 10 ft 58 kts 44°
2026-05-06 16:32 45.50394 12.35014 230 ft 58 kts 34°
2026-05-06 16:32 45.50760 12.35417 327 ft 73 kts 39°
2026-05-06 16:32 45.51195 12.35934 569 ft 84 kts 42°
2026-05-06 16:33 45.51552 12.36544 838 ft 83 kts 92°
2026-05-06 16:33 45.51120 12.37121 966 ft 96 kts 147°
2026-05-06 16:33 45.50520 12.37659 1055 ft 103 kts 149°
2026-05-06 16:34 45.49439 12.38871 926 ft 110 kts 149°
2026-05-06 16:34 45.48822 12.39461 946 ft 104 kts 144°
2026-05-06 16:34 45.48240 12.40030 1015 ft 102 kts 146°
2026-05-06 16:34 45.47637 12.40620 1002 ft 109 kts 146°
2026-05-06 16:35 45.47005 12.41242 968 ft 114 kts 145°
2026-05-06 16:35 45.46318 12.41776 924 ft 115 kts 161°
2026-05-06 16:35 45.45521 12.41845 859 ft 116 kts 181°
2026-05-06 16:35 45.44769 12.41780 763 ft 96 kts 182°
2026-05-06 16:36 45.44199 12.41353 546 ft 93 kts 219°
2026-05-06 16:36 45.43839 12.40640 336 ft 81 kts 225°
2026-05-06 16:36 45.43507 12.40040 227 ft 75 kts 226°
2026-05-06 16:36 45.43176 12.39439 17 ft 75 kts 229°
2026-05-06 16:37 45.42956 12.39024 12 ft 20 kts 234°
2026-05-06 16:37 45.42947 12.39006 12 ft 0 kts 232°